{"data":{"norad_id":49330,"intl_designator":"2021-094A","name":"SHIJIAN-21 (SJ-21)","alt_names":[],"object_type":"PAYLOAD","status":"ACTIVE","operator":null,"country":"PRC","launch_date":"2021-10-24","launch_site_code":"XICLF","launch_vehicle":null,"mission":null,"orbit_class":"UNKNOWN","rcs_meters":null,"size_class":null,"mass_kg":null,"dimensions":null,"purposes":["comms"],"wikipedia_slug":null,"has_3d_model":false,"image_url":null,"decayed_at":null,"tle_current":{"epoch":"2026-09-19T22:45:02.644128Z","epoch_age_seconds":69699,"freshness":"FRESH","line1":"1 49330U 21094A   26262.94794727 -.00000351  00000+0  00000+0 0  9990","line2":"2 49330   5.3322  60.5344 0053651 171.5345 235.8127  1.00263900  6313","mean_motion":1.002639,"eccentricity":0.0053651,"inclination_deg":5.3322,"raan_deg":60.5344,"arg_perigee_deg":171.5345,"mean_anomaly_deg":235.8127,"bstar":0,"rev_number":631,"period_min":1436.2098422264,"perigee_km":35562.575694269,"apogee_km":36015.035421303,"semimajor_km":42166.942557786,"source":"CELESTRAK","updated_at":"2026-09-20T09:00:35.299977Z"}}}